Year,Month,Day,Hour,Minute,Value (Times are PST for temperature in C)
2013,08,01,00,00,16.90
2013,08,01,00,01,16.90
2013,08,01,00,02,16.80
2013,08,01,00,03,16.80
2013,08,01,00,04,16.80
2013,08,01,00,05,16.80
2013,08,01,00,06,16.80
2013,08,01,00,07,16.80
2013,08,01,00,08,16.70
2013,08,01,00,09,16.70
2013,08,01,00,10,16.70
2013,08,01,00,11,16.60
2013,08,01,00,12,16.60
2013,08,01,00,13,16.60
2013,08,01,00,14,16.60
2013,08,01,00,15,16.50
2013,08,01,00,16,16.50
2013,08,01,00,17,16.50
2013,08,01,00,18,16.40
2013,08,01,00,19,16.40
2013,08,01,00,20,16.40
2013,08,01,00,21,16.40
2013,08,01,00,22,16.40
2013,08,01,00,23,16.30
2013,08,01,00,24,16.30
2013,08,01,00,25,16.30
2013,08,01,00,26,16.30
2013,08,01,00,27,16.30
2013,08,01,00,28,16.30
2013,08,01,00,29,16.30
2013,08,01,00,30,16.30
2013,08,01,00,31,16.40
2013,08,01,00,32,16.40
2013,08,01,00,33,16.40
2013,08,01,00,34,16.40
2013,08,01,00,35,16.40
2013,08,01,00,36,16.40
2013,08,01,00,37,16.40
2013,08,01,00,38,16.40
2013,08,01,00,39,16.40
2013,08,01,00,40,16.40
2013,08,01,00,41,16.40
2013,08,01,00,42,16.40
2013,08,01,00,43,16.50
2013,08,01,00,44,16.80
2013,08,01,00,45,16.80
2013,08,01,00,46,16.80
2013,08,01,00,47,16.90
2013,08,01,00,48,16.90
2013,08,01,00,49,16.90
2013,08,01,00,50,16.90
2013,08,01,00,51,16.90
2013,08,01,00,52,17.00
2013,08,01,00,53,17.00
2013,08,01,00,54,17.00
2013,08,01,00,55,17.10
2013,08,01,00,56,17.10
2013,08,01,00,57,17.10
2013,08,01,00,58,17.10
2013,08,01,00,59,17.10
2013,08,01,01,00,17.10
2013,08,01,01,01,17.10
2013,08,01,01,02,17.20
2013,08,01,01,03,17.20
2013,08,01,01,04,17.20
2013,08,01,01,05,17.20
2013,08,01,01,06,17.20
2013,08,01,01,07,17.20
2013,08,01,01,08,17.20
2013,08,01,01,09,17.20
2013,08,01,01,10,17.20
2013,08,01,01,11,17.20
2013,08,01,01,12,17.30
2013,08,01,01,13,17.30
2013,08,01,01,14,17.30
2013,08,01,01,15,17.30
2013,08,01,01,16,17.30
2013,08,01,01,17,17.30
2013,08,01,01,18,17.30
2013,08,01,01,19,17.30
2013,08,01,01,20,17.30
2013,08,01,01,21,17.30
2013,08,01,01,22,17.30
2013,08,01,01,23,17.30
2013,08,01,01,24,17.40
2013,08,01,01,25,17.30
2013,08,01,01,26,17.30
2013,08,01,01,27,17.30
2013,08,01,01,28,17.30
2013,08,01,01,29,17.30
2013,08,01,01,30,17.30
2013,08,01,01,31,17.30
2013,08,01,01,32,17.30
2013,08,01,01,33,17.30
2013,08,01,01,34,17.20
2013,08,01,01,35,17.20
2013,08,01,01,36,17.20
2013,08,01,01,37,17.20
2013,08,01,01,38,17.20
2013,08,01,01,39,17.20
2013,08,01,01,40,17.20
2013,08,01,01,41,17.20
2013,08,01,01,42,17.20
2013,08,01,01,43,17.20
2013,08,01,01,44,17.20
2013,08,01,01,45,17.20
2013,08,01,01,46,17.20
2013,08,01,01,47,17.20
2013,08,01,01,48,17.10
2013,08,01,01,49,17.10
2013,08,01,01,50,17.10
2013,08,01,01,51,17.10
2013,08,01,01,52,17.10
2013,08,01,01,53,17.10
2013,08,01,01,54,17.10
2013,08,01,01,55,17.10
2013,08,01,01,56,17.10
2013,08,01,01,57,17.00
2013,08,01,01,58,17.00
2013,08,01,01,59,17.00
2013,08,01,02,00,16.90
2013,08,01,02,01,16.90
2013,08,01,02,02,16.90
2013,08,01,02,03,16.90
2013,08,01,02,04,16.90
2013,08,01,02,05,16.80
2013,08,01,02,06,16.80
2013,08,01,02,07,16.80
2013,08,01,02,08,16.80
2013,08,01,02,09,16.70
2013,08,01,02,10,16.70
2013,08,01,02,11,16.70
2013,08,01,02,12,16.70
2013,08,01,02,13,16.60
2013,08,01,02,14,16.60
2013,08,01,02,15,16.50
2013,08,01,02,16,16.50
2013,08,01,02,17,16.40
2013,08,01,02,18,16.30
2013,08,01,02,19,16.30
2013,08,01,02,20,16.20
2013,08,01,02,21,16.10
2013,08,01,02,22,16.10
2013,08,01,02,23,16.00
2013,08,01,02,24,16.00
2013,08,01,02,25,15.90
2013,08,01,02,26,15.90
2013,08,01,02,27,15.80
2013,08,01,02,28,15.80
2013,08,01,02,29,15.70
2013,08,01,02,30,15.70
2013,08,01,02,31,15.70
2013,08,01,02,32,15.60
2013,08,01,02,33,15.60
2013,08,01,02,34,15.50
2013,08,01,02,35,15.50
2013,08,01,02,36,15.40
2013,08,01,02,37,15.40
2013,08,01,02,38,15.40
2013,08,01,02,39,15.30
2013,08,01,02,40,15.30
2013,08,01,02,41,15.20
2013,08,01,02,42,15.20
2013,08,01,02,43,15.10
2013,08,01,02,44,15.00
2013,08,01,02,45,15.00
2013,08,01,02,46,15.00
2013,08,01,02,47,15.00
2013,08,01,02,48,15.00
2013,08,01,02,49,14.90
2013,08,01,02,50,14.90
2013,08,01,02,51,14.90
2013,08,01,02,52,14.80
2013,08,01,02,53,14.80
2013,08,01,02,54,14.80
2013,08,01,02,55,14.80
2013,08,01,02,56,14.80
2013,08,01,02,57,14.70
2013,08,01,02,58,14.70
2013,08,01,02,59,14.70
2013,08,01,03,00,14.70
2013,08,01,03,01,14.70
2013,08,01,03,02,14.70
2013,08,01,03,03,14.70
2013,08,01,03,04,14.70
2013,08,01,03,05,14.70
2013,08,01,03,06,14.60
2013,08,01,03,07,14.60
2013,08,01,03,08,14.60
2013,08,01,03,09,14.60
2013,08,01,03,10,14.60
2013,08,01,03,11,14.60
2013,08,01,03,12,14.60
2013,08,01,03,13,14.60
2013,08,01,03,14,14.60
2013,08,01,03,15,14.60
2013,08,01,03,16,14.60
2013,08,01,03,17,14.60
2013,08,01,03,18,14.60
2013,08,01,03,19,14.50
2013,08,01,03,20,14.50
2013,08,01,03,21,14.50
2013,08,01,03,22,14.50
2013,08,01,03,23,14.50
2013,08,01,03,24,14.50
2013,08,01,03,25,14.50
2013,08,01,03,26,14.40
2013,08,01,03,27,14.40
2013,08,01,03,28,14.40
2013,08,01,03,29,14.40
2013,08,01,03,30,14.40
2013,08,01,03,31,14.40
2013,08,01,03,32,14.40
2013,08,01,03,33,14.40
2013,08,01,03,34,14.40
2013,08,01,03,35,14.40
2013,08,01,03,36,14.40
2013,08,01,03,37,14.40
2013,08,01,03,38,14.40
2013,08,01,03,39,14.40
2013,08,01,03,40,14.40
2013,08,01,03,41,14.40
2013,08,01,03,42,14.40
2013,08,01,03,43,14.40
2013,08,01,03,44,14.40
2013,08,01,03,45,14.40
2013,08,01,03,46,14.30
2013,08,01,03,47,14.30
2013,08,01,03,48,14.30
2013,08,01,03,49,14.30
2013,08,01,03,50,14.30
2013,08,01,03,51,14.30
2013,08,01,03,52,14.30
2013,08,01,03,53,14.30
2013,08,01,03,54,14.20
2013,08,01,03,55,14.20
2013,08,01,03,56,14.20
2013,08,01,03,57,14.20
2013,08,01,03,58,14.20
2013,08,01,03,59,14.20
2013,08,01,04,00,14.20
2013,08,01,04,01,14.20
2013,08,01,04,02,14.20
2013,08,01,04,03,14.20
2013,08,01,04,04,14.20
2013,08,01,04,05,14.10
2013,08,01,04,06,14.10
2013,08,01,04,07,14.10
2013,08,01,04,08,14.10
2013,08,01,04,09,14.10
2013,08,01,04,10,14.10
2013,08,01,04,11,14.10
2013,08,01,04,12,14.00
2013,08,01,04,13,14.00
2013,08,01,04,14,14.00
2013,08,01,04,15,14.00
2013,08,01,04,16,13.90
2013,08,01,04,17,13.90
2013,08,01,04,18,13.90
2013,08,01,04,19,13.90
2013,08,01,04,20,13.90
2013,08,01,04,21,13.80
2013,08,01,04,22,13.80
2013,08,01,04,23,13.90
2013,08,01,04,24,13.90
2013,08,01,04,25,13.90
2013,08,01,04,26,13.90
2013,08,01,04,27,13.90
2013,08,01,04,28,13.90
2013,08,01,04,29,13.90
2013,08,01,04,30,13.90
2013,08,01,04,31,13.90
2013,08,01,04,32,13.80
2013,08,01,04,33,13.80
2013,08,01,04,34,13.80
2013,08,01,04,35,13.80
2013,08,01,04,36,13.80
2013,08,01,04,37,13.80
2013,08,01,04,38,13.80
2013,08,01,04,39,13.80
2013,08,01,04,40,13.80
2013,08,01,04,41,13.80
2013,08,01,04,42,13.80
2013,08,01,04,43,13.80
2013,08,01,04,44,13.80
2013,08,01,04,45,13.80
2013,08,01,04,46,13.70
2013,08,01,04,47,13.70
2013,08,01,04,48,13.70
2013,08,01,04,49,13.70
2013,08,01,04,50,13.70
2013,08,01,04,51,13.70
2013,08,01,04,52,13.70
2013,08,01,04,53,13.70
2013,08,01,04,54,13.70
2013,08,01,04,55,13.70
2013,08,01,04,56,13.70
2013,08,01,04,57,13.70
2013,08,01,04,58,13.70
2013,08,01,04,59,13.60
2013,08,01,05,00,13.60
2013,08,01,05,01,13.60
2013,08,01,05,02,13.60
2013,08,01,05,03,13.60
2013,08,01,05,04,13.60
2013,08,01,05,05,13.60
2013,08,01,05,06,13.50
2013,08,01,05,07,13.50
2013,08,01,05,08,13.50
2013,08,01,05,09,13.50
2013,08,01,05,10,13.50
2013,08,01,05,11,13.50
2013,08,01,05,12,13.60
2013,08,01,05,13,13.60
2013,08,01,05,14,13.60
2013,08,01,05,15,13.60
2013,08,01,05,16,13.60
2013,08,01,05,17,13.60
2013,08,01,05,18,13.60
2013,08,01,05,19,13.60
2013,08,01,05,20,13.60
2013,08,01,05,21,13.60
2013,08,01,05,22,13.60
2013,08,01,05,23,13.60
2013,08,01,05,24,13.60
2013,08,01,05,25,13.60
2013,08,01,05,26,13.50
2013,08,01,05,27,13.50
2013,08,01,05,28,13.50
2013,08,01,05,29,13.50
2013,08,01,05,30,13.50
2013,08,01,05,31,13.50
2013,08,01,05,32,13.40
2013,08,01,05,33,13.40
2013,08,01,05,34,13.40
2013,08,01,05,35,13.40
2013,08,01,05,36,13.40
2013,08,01,05,37,13.40
2013,08,01,05,38,13.40
2013,08,01,05,39,13.40
2013,08,01,05,40,13.40
2013,08,01,05,41,13.40
2013,08,01,05,42,13.40
2013,08,01,05,43,13.40
2013,08,01,05,44,13.40
2013,08,01,05,45,13.30
2013,08,01,05,46,13.30
2013,08,01,05,47,13.30
2013,08,01,05,48,13.30
2013,08,01,05,49,13.30
2013,08,01,05,50,13.30
2013,08,01,05,51,13.30
2013,08,01,05,52,13.30
2013,08,01,05,53,13.30
2013,08,01,05,54,13.30
2013,08,01,05,55,13.30
2013,08,01,05,56,13.30
2013,08,01,05,57,13.30
2013,08,01,05,58,13.30
2013,08,01,05,59,13.30
2013,08,01,06,00,13.20
2013,08,01,06,01,13.20
2013,08,01,06,02,13.20
2013,08,01,06,03,13.20
2013,08,01,06,04,13.20
2013,08,01,06,05,13.10
2013,08,01,06,06,13.10
2013,08,01,06,07,13.10
2013,08,01,06,08,13.10
2013,08,01,06,09,13.10
2013,08,01,06,10,13.10
2013,08,01,06,11,13.10
2013,08,01,06,12,13.10
2013,08,01,06,13,13.10
2013,08,01,06,14,13.10
2013,08,01,06,15,13.00
2013,08,01,06,16,13.00
2013,08,01,06,17,13.00
2013,08,01,06,18,13.00
2013,08,01,06,19,13.00
2013,08,01,06,20,13.00
2013,08,01,06,21,13.00
2013,08,01,06,22,12.90
2013,08,01,06,23,12.90
2013,08,01,06,24,12.90
2013,08,01,06,25,12.90
2013,08,01,06,26,12.90
2013,08,01,06,27,12.90
2013,08,01,06,28,12.90
2013,08,01,06,29,12.80
2013,08,01,06,30,12.80
2013,08,01,06,31,12.80
2013,08,01,06,32,12.90
2013,08,01,06,33,12.90
2013,08,01,06,34,12.90
2013,08,01,06,35,12.90
2013,08,01,06,36,12.90
2013,08,01,06,37,12.90
2013,08,01,06,38,12.90
2013,08,01,06,39,12.90
2013,08,01,06,40,12.90
2013,08,01,06,41,12.90
2013,08,01,06,42,12.90
2013,08,01,06,43,12.90
2013,08,01,06,44,12.90
2013,08,01,06,45,12.90
2013,08,01,06,46,13.00
2013,08,01,06,47,13.00
2013,08,01,06,48,13.00
2013,08,01,06,49,13.00
2013,08,01,06,50,13.00
2013,08,01,06,51,13.00
2013,08,01,06,52,13.00
2013,08,01,06,53,13.10
2013,08,01,06,54,13.10
2013,08,01,06,55,13.10
2013,08,01,06,56,13.10
2013,08,01,06,57,13.10
2013,08,01,06,58,13.10
2013,08,01,06,59,13.10
2013,08,01,07,00,13.10
2013,08,01,07,01,13.10
2013,08,01,07,02,13.10
2013,08,01,07,03,13.20
2013,08,01,07,04,13.20
2013,08,01,07,05,13.30
2013,08,01,07,06,13.30
2013,08,01,07,07,13.30
2013,08,01,07,08,13.30
2013,08,01,07,09,13.30
2013,08,01,07,10,13.30
2013,08,01,07,11,13.30
2013,08,01,07,12,13.40
2013,08,01,07,13,13.40
2013,08,01,07,14,13.40
2013,08,01,07,15,13.40
2013,08,01,07,16,13.40
2013,08,01,07,17,13.40
2013,08,01,07,18,13.40
2013,08,01,07,19,13.50
2013,08,01,07,20,13.50
2013,08,01,07,21,13.50
2013,08,01,07,22,13.50
2013,08,01,07,23,13.60
2013,08,01,07,24,13.60
2013,08,01,07,25,13.60
2013,08,01,07,26,13.60
2013,08,01,07,27,13.70
2013,08,01,07,28,13.70
2013,08,01,07,29,13.70
2013,08,01,07,30,13.70
2013,08,01,07,31,13.70
2013,08,01,07,32,13.70
2013,08,01,07,33,13.80
2013,08,01,07,34,13.80
2013,08,01,07,35,13.80
2013,08,01,07,36,13.80
2013,08,01,07,37,13.80
2013,08,01,07,38,13.90
2013,08,01,07,39,13.90
2013,08,01,07,40,13.90
2013,08,01,07,41,13.90
2013,08,01,07,42,13.90
2013,08,01,07,43,14.00
2013,08,01,07,44,14.00
2013,08,01,07,45,14.00
2013,08,01,07,46,14.10
2013,08,01,07,47,14.10
2013,08,01,07,48,14.10
2013,08,01,07,49,14.10
2013,08,01,07,50,14.20
2013,08,01,07,51,14.20
2013,08,01,07,52,14.20
2013,08,01,07,53,14.30
2013,08,01,07,54,14.30
2013,08,01,07,55,14.30
2013,08,01,07,56,14.40
2013,08,01,07,57,14.50
2013,08,01,07,58,14.50
2013,08,01,07,59,14.60
2013,08,01,08,00,14.70
2013,08,01,08,01,14.80
2013,08,01,08,02,14.90
2013,08,01,08,03,14.90
2013,08,01,08,04,15.00
2013,08,01,08,05,15.00
2013,08,01,08,06,15.00
2013,08,01,08,07,15.00
2013,08,01,08,08,15.00
2013,08,01,08,09,15.10
2013,08,01,08,10,15.20
2013,08,01,08,11,15.30
2013,08,01,08,12,15.30
2013,08,01,08,13,15.40
2013,08,01,08,14,15.50
2013,08,01,08,15,15.50
2013,08,01,08,16,15.60
2013,08,01,08,17,15.60
2013,08,01,08,18,15.70
2013,08,01,08,19,15.70
2013,08,01,08,20,15.70
2013,08,01,08,21,15.70
2013,08,01,08,22,15.80
2013,08,01,08,23,15.90
2013,08,01,08,24,15.90
2013,08,01,08,25,16.00
2013,08,01,08,26,16.10
2013,08,01,08,27,16.20
2013,08,01,08,28,16.20
2013,08,01,08,29,16.30
2013,08,01,08,30,16.30
2013,08,01,08,31,16.30
2013,08,01,08,32,16.40
2013,08,01,08,33,16.40
2013,08,01,08,34,16.50
2013,08,01,08,35,16.50
2013,08,01,08,36,16.60
2013,08,01,08,37,16.60
2013,08,01,08,38,16.60
2013,08,01,08,39,16.60
2013,08,01,08,40,16.60
2013,08,01,08,41,16.60
2013,08,01,08,42,16.70
2013,08,01,08,43,16.70
2013,08,01,08,44,16.70
2013,08,01,08,45,16.70
2013,08,01,08,46,16.80
2013,08,01,08,47,16.80
2013,08,01,08,48,16.80
2013,08,01,08,49,16.80
2013,08,01,08,50,16.90
2013,08,01,08,51,16.90
2013,08,01,08,52,16.90
2013,08,01,08,53,16.90
2013,08,01,08,54,16.90
2013,08,01,08,55,16.80
2013,08,01,08,56,16.80
2013,08,01,08,57,16.80
2013,08,01,08,58,16.90
2013,08,01,08,59,16.90
2013,08,01,09,00,16.90
2013,08,01,09,01,17.00
2013,08,01,09,02,17.10
2013,08,01,09,03,17.10
2013,08,01,09,04,17.20
2013,08,01,09,05,17.30
2013,08,01,09,06,17.30
2013,08,01,09,07,17.40
2013,08,01,09,08,17.40
2013,08,01,09,09,17.50
2013,08,01,09,10,17.60
2013,08,01,09,11,17.60
2013,08,01,09,12,17.60
2013,08,01,09,13,17.60
2013,08,01,09,14,17.60
2013,08,01,09,15,17.60
2013,08,01,09,16,17.50
2013,08,01,09,17,17.40
2013,08,01,09,18,17.40
2013,08,01,09,19,17.40
2013,08,01,09,20,17.40
2013,08,01,09,21,17.40
2013,08,01,09,22,17.40
2013,08,01,09,23,17.40
2013,08,01,09,24,17.40
2013,08,01,09,25,17.50
2013,08,01,09,26,17.50
2013,08,01,09,27,17.60
2013,08,01,09,28,17.60
2013,08,01,09,29,17.70
2013,08,01,09,30,17.80
2013,08,01,09,31,17.80
2013,08,01,09,32,17.70
2013,08,01,09,33,17.60
2013,08,01,09,34,17.60
2013,08,01,09,35,17.70
2013,08,01,09,36,17.70
2013,08,01,09,37,17.70
2013,08,01,09,38,17.70
2013,08,01,09,39,17.80
2013,08,01,09,40,17.80
2013,08,01,09,41,17.80
2013,08,01,09,42,17.60
2013,08,01,09,43,17.50
2013,08,01,09,44,17.40
2013,08,01,09,45,17.30
2013,08,01,09,46,17.30
2013,08,01,09,47,17.40
2013,08,01,09,48,17.40
2013,08,01,09,49,17.50
2013,08,01,09,50,17.50
2013,08,01,09,51,17.60
2013,08,01,09,52,17.70
2013,08,01,09,53,17.80
2013,08,01,09,54,17.80
2013,08,01,09,55,17.80
2013,08,01,09,56,17.90
2013,08,01,09,57,18.00
2013,08,01,09,58,18.10
2013,08,01,09,59,18.10
2013,08,01,10,00,18.10
2013,08,01,10,01,18.10
2013,08,01,10,02,18.10
2013,08,01,10,03,18.10
2013,08,01,10,04,18.10
2013,08,01,10,05,18.20
2013,08,01,10,06,18.20
2013,08,01,10,07,18.20
2013,08,01,10,08,18.20
2013,08,01,10,09,18.20
2013,08,01,10,10,18.30
2013,08,01,10,11,18.30
2013,08,01,10,12,18.40
2013,08,01,10,13,18.40
2013,08,01,10,14,18.50
2013,08,01,10,15,18.60
2013,08,01,10,16,18.60
2013,08,01,10,17,18.70
2013,08,01,10,18,18.70
2013,08,01,10,19,18.80
2013,08,01,10,20,18.80
2013,08,01,10,21,18.90
2013,08,01,10,22,19.00
2013,08,01,10,23,19.00
2013,08,01,10,24,19.10
2013,08,01,10,25,19.10
2013,08,01,10,26,19.20
2013,08,01,10,27,19.20
2013,08,01,10,28,19.30
2013,08,01,10,29,19.40
2013,08,01,10,30,19.40
2013,08,01,10,31,19.40
2013,08,01,10,32,19.50
2013,08,01,10,33,19.50
2013,08,01,10,34,19.60
2013,08,01,10,35,19.60
2013,08,01,10,36,19.50
2013,08,01,10,37,19.50
2013,08,01,10,38,19.50
2013,08,01,10,39,19.60
2013,08,01,10,40,19.60
2013,08,01,10,41,19.60
2013,08,01,10,42,19.60
2013,08,01,10,43,19.70
2013,08,01,10,44,19.70
2013,08,01,10,45,19.80
2013,08,01,10,46,19.80
2013,08,01,10,47,19.90
2013,08,01,10,48,19.90
2013,08,01,10,49,20.00
2013,08,01,10,50,19.90
2013,08,01,10,51,19.90
2013,08,01,10,52,19.90
2013,08,01,10,53,19.80
2013,08,01,10,54,19.80
2013,08,01,10,55,19.80
2013,08,01,10,56,19.80
2013,08,01,10,57,19.80
2013,08,01,10,58,19.90
2013,08,01,10,59,19.90
2013,08,01,11,00,20.00
2013,08,01,11,01,20.10
2013,08,01,11,02,20.10
2013,08,01,11,03,20.20
2013,08,01,11,04,20.30
2013,08,01,11,05,20.40
2013,08,01,11,06,20.50
2013,08,01,11,07,20.50
2013,08,01,11,08,20.60
2013,08,01,11,09,20.60
2013,08,01,11,10,20.60
2013,08,01,11,11,20.70
2013,08,01,11,12,20.70
2013,08,01,11,13,20.80
2013,08,01,11,14,20.80
2013,08,01,11,15,20.80
2013,08,01,11,16,20.90
2013,08,01,11,17,20.90
2013,08,01,11,18,20.90
2013,08,01,11,19,20.90
2013,08,01,11,20,20.90
2013,08,01,11,21,20.90
2013,08,01,11,22,21.00
2013,08,01,11,23,21.00
2013,08,01,11,24,21.10
2013,08,01,11,25,21.20
2013,08,01,11,26,21.30
2013,08,01,11,27,21.40
2013,08,01,11,28,21.50
2013,08,01,11,29,21.60
2013,08,01,11,30,21.70
2013,08,01,11,31,21.70
2013,08,01,11,32,21.70
2013,08,01,11,33,21.80
2013,08,01,11,34,21.70
2013,08,01,11,35,21.70
2013,08,01,11,36,21.70
2013,08,01,11,37,21.70
2013,08,01,11,38,21.80
2013,08,01,11,39,21.80
2013,08,01,11,40,21.90
2013,08,01,11,41,22.00
2013,08,01,11,42,22.20
2013,08,01,11,43,22.20
2013,08,01,11,44,22.30
2013,08,01,11,45,22.30
2013,08,01,11,46,22.40
2013,08,01,11,47,22.40
2013,08,01,11,48,22.50
2013,08,01,11,49,22.50
2013,08,01,11,50,22.50
2013,08,01,11,51,22.40
2013,08,01,11,52,22.40
2013,08,01,11,53,22.40
2013,08,01,11,54,22.40
2013,08,01,11,55,22.40
2013,08,01,11,56,22.30
2013,08,01,11,57,22.20
2013,08,01,11,58,22.00
2013,08,01,11,59,21.90
2013,08,01,12,00,21.80
2013,08,01,12,01,21.70
2013,08,01,12,02,21.70
2013,08,01,12,03,21.70
2013,08,01,12,04,21.70
2013,08,01,12,05,21.80
2013,08,01,12,06,22.00
2013,08,01,12,07,22.00
2013,08,01,12,08,22.10
2013,08,01,12,09,22.10
2013,08,01,12,10,22.20
2013,08,01,12,11,22.20
2013,08,01,12,12,22.20
2013,08,01,12,13,22.20
2013,08,01,12,14,22.20
2013,08,01,12,15,22.10
2013,08,01,12,16,22.10
2013,08,01,12,17,22.00
2013,08,01,12,18,21.90
2013,08,01,12,19,21.90
2013,08,01,12,20,21.90
2013,08,01,12,21,21.90
2013,08,01,12,22,21.90
2013,08,01,12,23,21.80
2013,08,01,12,24,21.70
2013,08,01,12,25,21.60
2013,08,01,12,26,21.60
2013,08,01,12,27,21.50
2013,08,01,12,28,21.50
2013,08,01,12,29,21.50
2013,08,01,12,30,21.50
2013,08,01,12,31,21.50
2013,08,01,12,32,21.60
2013,08,01,12,33,21.60
2013,08,01,12,34,21.60
2013,08,01,12,35,21.60
2013,08,01,12,36,21.60
2013,08,01,12,37,21.70
2013,08,01,12,38,21.60
2013,08,01,12,39,21.60
2013,08,01,12,40,21.70
2013,08,01,12,41,21.70
2013,08,01,12,42,21.70
2013,08,01,12,43,21.70
2013,08,01,12,44,21.70
2013,08,01,12,45,21.70
2013,08,01,12,46,21.70
2013,08,01,12,47,21.70
2013,08,01,12,48,21.70
2013,08,01,12,49,21.60
2013,08,01,12,50,21.60
2013,08,01,12,51,21.60
2013,08,01,12,52,21.70
2013,08,01,12,53,21.80
2013,08,01,12,54,21.80
2013,08,01,12,55,21.80
2013,08,01,12,56,21.80
2013,08,01,12,57,21.80
2013,08,01,12,58,21.80
2013,08,01,12,59,21.80
2013,08,01,13,00,22.00
2013,08,01,13,01,22.10
2013,08,01,13,02,22.20
2013,08,01,13,03,22.30
2013,08,01,13,04,22.30
2013,08,01,13,05,22.30
2013,08,01,13,06,22.30
2013,08,01,13,07,22.30
2013,08,01,13,08,22.30
2013,08,01,13,09,22.30
2013,08,01,13,10,22.30
2013,08,01,13,11,22.30
2013,08,01,13,12,22.20
2013,08,01,13,13,22.30
2013,08,01,13,14,22.30
2013,08,01,13,15,22.20
2013,08,01,13,16,22.30
2013,08,01,13,17,22.30
2013,08,01,13,18,22.30
2013,08,01,13,19,22.20
2013,08,01,13,20,22.10
2013,08,01,13,21,21.90
2013,08,01,13,22,21.90
2013,08,01,13,23,22.00
2013,08,01,13,24,22.10
2013,08,01,13,25,22.10
2013,08,01,13,26,22.20
2013,08,01,13,27,22.20
2013,08,01,13,28,22.20
2013,08,01,13,29,22.30
2013,08,01,13,30,22.30
2013,08,01,13,31,22.40
2013,08,01,13,32,22.40
2013,08,01,13,33,22.40
2013,08,01,13,34,22.50
2013,08,01,13,35,22.40
2013,08,01,13,36,22.50
2013,08,01,13,37,22.50
2013,08,01,13,38,22.50
2013,08,01,13,39,22.50
2013,08,01,13,40,22.60
2013,08,01,13,41,22.60
2013,08,01,13,42,22.60
2013,08,01,13,43,22.60
2013,08,01,13,44,22.60
2013,08,01,13,45,22.70
2013,08,01,13,46,22.70
2013,08,01,13,47,22.70
2013,08,01,13,48,22.70
2013,08,01,13,49,22.70
2013,08,01,13,50,22.70
2013,08,01,13,51,22.80
2013,08,01,13,52,22.90
2013,08,01,13,53,22.90
2013,08,01,13,54,22.80
2013,08,01,13,55,22.80
2013,08,01,13,56,22.80
2013,08,01,13,57,22.70
2013,08,01,13,58,22.60
2013,08,01,13,59,22.60
2013,08,01,14,00,22.60
2013,08,01,14,01,22.50
2013,08,01,14,02,22.50
2013,08,01,14,03,22.40
2013,08,01,14,04,22.40
2013,08,01,14,05,22.40
2013,08,01,14,06,22.40
2013,08,01,14,07,22.40
2013,08,01,14,08,22.40
2013,08,01,14,09,22.40
2013,08,01,14,10,22.30
2013,08,01,14,11,22.30
2013,08,01,14,12,22.30
2013,08,01,14,13,22.30
2013,08,01,14,14,22.30
2013,08,01,14,15,22.40
2013,08,01,14,16,22.40
2013,08,01,14,17,22.40
2013,08,01,14,18,22.50
2013,08,01,14,19,22.50
2013,08,01,14,20,22.60
2013,08,01,14,21,22.60
2013,08,01,14,22,22.60
2013,08,01,14,23,22.70
2013,08,01,14,24,22.80
2013,08,01,14,25,22.80
2013,08,01,14,26,22.80
2013,08,01,14,27,22.80
2013,08,01,14,28,22.80
2013,08,01,14,29,22.80
2013,08,01,14,30,22.90
2013,08,01,14,31,22.90
2013,08,01,14,32,22.90
2013,08,01,14,33,22.90
2013,08,01,14,34,23.00
2013,08,01,14,35,22.90
2013,08,01,14,36,22.90
2013,08,01,14,37,22.90
2013,08,01,14,38,22.80
2013,08,01,14,39,22.80
2013,08,01,14,40,22.70
2013,08,01,14,41,22.70
2013,08,01,14,42,22.70
2013,08,01,14,43,22.70
2013,08,01,14,44,22.70
2013,08,01,14,45,22.70
2013,08,01,14,46,22.60
2013,08,01,14,47,22.60
2013,08,01,14,48,22.40
2013,08,01,14,49,22.40
2013,08,01,14,50,22.30
2013,08,01,14,51,22.30
2013,08,01,14,52,22.20
2013,08,01,14,53,22.20
2013,08,01,14,54,22.20
2013,08,01,14,55,22.10
2013,08,01,14,56,22.00
2013,08,01,14,57,21.90
2013,08,01,14,58,21.90
2013,08,01,14,59,21.90
2013,08,01,15,00,21.80
2013,08,01,15,01,21.90
2013,08,01,15,02,21.90
2013,08,01,15,03,21.90
2013,08,01,15,04,22.00
2013,08,01,15,05,22.00
2013,08,01,15,06,22.10
2013,08,01,15,07,22.20
2013,08,01,15,08,22.30
2013,08,01,15,09,22.50
2013,08,01,15,10,22.60
2013,08,01,15,11,22.70
2013,08,01,15,12,22.80
2013,08,01,15,13,22.80
2013,08,01,15,14,22.90
2013,08,01,15,15,22.90
2013,08,01,15,16,23.00
2013,08,01,15,17,23.00
2013,08,01,15,18,23.00
2013,08,01,15,19,23.10
2013,08,01,15,20,23.10
2013,08,01,15,21,23.10
2013,08,01,15,22,23.20
2013,08,01,15,23,23.10
2013,08,01,15,24,23.10
2013,08,01,15,25,22.90
2013,08,01,15,26,22.80
2013,08,01,15,27,22.80
2013,08,01,15,28,22.80
2013,08,01,15,29,22.80
2013,08,01,15,30,22.80
2013,08,01,15,31,22.90
2013,08,01,15,32,22.90
2013,08,01,15,33,22.90
2013,08,01,15,34,22.80
2013,08,01,15,35,22.70
2013,08,01,15,36,22.70
2013,08,01,15,37,22.70
2013,08,01,15,38,22.70
2013,08,01,15,39,22.80
2013,08,01,15,40,22.80
2013,08,01,15,41,22.90
2013,08,01,15,42,22.90
2013,08,01,15,43,22.80
2013,08,01,15,44,22.80
2013,08,01,15,45,22.70
2013,08,01,15,46,22.70
2013,08,01,15,47,22.60
2013,08,01,15,48,22.60
2013,08,01,15,49,22.60
2013,08,01,15,50,22.60
2013,08,01,15,51,22.70
2013,08,01,15,52,22.70
2013,08,01,15,53,22.70
2013,08,01,15,54,22.70
2013,08,01,15,55,22.70
2013,08,01,15,56,22.70
2013,08,01,15,57,22.70
2013,08,01,15,58,22.70
2013,08,01,15,59,22.70
2013,08,01,16,00,22.70
2013,08,01,16,01,22.70
2013,08,01,16,02,22.70
2013,08,01,16,03,22.80
2013,08,01,16,04,22.80
2013,08,01,16,05,22.80
2013,08,01,16,06,22.90
2013,08,01,16,07,23.00
2013,08,01,16,08,23.10
2013,08,01,16,09,23.20
2013,08,01,16,10,23.30
2013,08,01,16,11,23.40
2013,08,01,16,12,23.50
2013,08,01,16,13,23.60
2013,08,01,16,14,23.70
2013,08,01,16,15,23.60
2013,08,01,16,16,23.60
2013,08,01,16,17,23.50
2013,08,01,16,18,23.50
2013,08,01,16,19,23.40
2013,08,01,16,20,23.30
2013,08,01,16,21,23.30
2013,08,01,16,22,23.30
2013,08,01,16,23,23.30
2013,08,01,16,24,23.30
2013,08,01,16,25,23.30
2013,08,01,16,26,23.20
2013,08,01,16,27,23.10
2013,08,01,16,28,23.10
2013,08,01,16,29,23.10
2013,08,01,16,30,23.00
2013,08,01,16,31,23.00
2013,08,01,16,32,23.00
2013,08,01,16,33,23.00
2013,08,01,16,34,23.00
2013,08,01,16,35,23.00
2013,08,01,16,36,23.10
2013,08,01,16,37,23.10
2013,08,01,16,38,23.10
2013,08,01,16,39,23.20
2013,08,01,16,40,23.20
2013,08,01,16,41,23.20
2013,08,01,16,42,23.20
2013,08,01,16,43,23.20
2013,08,01,16,44,23.20
2013,08,01,16,45,23.20
2013,08,01,16,46,23.20
2013,08,01,16,47,23.20
2013,08,01,16,48,23.20
2013,08,01,16,49,23.20
2013,08,01,16,50,23.20
2013,08,01,16,51,23.30
2013,08,01,16,52,23.30
2013,08,01,16,53,23.30
2013,08,01,16,54,23.20
2013,08,01,16,55,23.10
2013,08,01,16,56,23.00
2013,08,01,16,57,22.90
2013,08,01,16,58,22.80
2013,08,01,16,59,22.70
2013,08,01,17,00,22.70
2013,08,01,17,01,22.70
2013,08,01,17,02,22.70
2013,08,01,17,03,22.60
2013,08,01,17,04,22.60
2013,08,01,17,05,22.60
2013,08,01,17,06,22.70
2013,08,01,17,07,22.70
2013,08,01,17,08,22.60
2013,08,01,17,09,22.60
2013,08,01,17,10,22.50
2013,08,01,17,11,22.50
2013,08,01,17,12,22.40
2013,08,01,17,13,22.40
2013,08,01,17,14,22.40
2013,08,01,17,15,22.50
2013,08,01,17,16,22.50
2013,08,01,17,17,22.60
2013,08,01,17,18,22.70
2013,08,01,17,19,22.80